STARLINK-32443, 61672

Orbit data source: Space-Track

STARLINK-32443, 61672 is a payload satellite owned by SpaceX/Seattle (US) in LEO that was launched on Sat, 26 Oct 2024 UTC via an FALCON 9 launch vehicle from the Air Force Eastern Test Range (AFETR). Payloads include a variety of satellites, spacecraft, and rockets equipped with specific instruments for various scientific and technological missions. These include communications satellites like Starlink; space stations such as the ISS; scientific satellites like the Hubble; Earth observation satellites from companies like Planet Labs, Umbra, and HawkEye 360; GPS; miniature CubeSats for education and research; and military/defense satellites.

Loading next visibility...
STARLINK-32443 details
Identifier
61672, 2024-193M
Orbit
LEO
Last TLE update16 hours ago
Origin
Flag of USSpaceX/Seattle (US)
ManufacturerSpaceX/Seattle
MissionOperational spacecraft
Bus & MotorSTARLINK V2M, Unknown motor
Mass730 kg wet, ~700 kg dry
Launch date (UTC)
2024-10-26 (2 months ago)
Launch vehicle
FALCON 9
Launch site
Air Force Eastern Test Range (AFETR)
Object type
Payload
Rocket body
Debris
Shape & HBRUnknown
Radar Cross SectionLarge (>1 m²)

Expand to show TLE details & history

TLE from 16 hours ago
0 STARLINK-32443
1 61672U 24193M   24361.21682808  .00000312  00000-0  17787-4 0  9992
2 61672  53.1605 329.8656 0000871  91.1375 268.9730 15.39619928 10532
Epoch: 2024-12-26T05:12Z
Definitive object data (Epoch: 2024-12-26T05:12:13.946Z)
Latitude0.00002°
Longitude156.60811°
Altitude448.147 km
Speed7.645 km/s
True Right ascension21h 59m 27s
True Declination0° 00' 00"
Sunlit
Object was in daylight at TLE epoch
Visualization TLE readout
Latitude41.22937°
Longitude-165.73879°
Altitude450.611 km
Speed7.647 km/s
Apparent Right ascension04h 17m 47s
Apparent Declination4° 32' 23"
Sunlit
Object is in daylight
Visualization observer readout
Local Sidereal Time20:24:14
Azimuth67.412° ENE
Elevation-18.224°
Doppler factor1
Orbital elements
Apogee altitude448.084 km
Perigee altitude446.895 km
Semi-major axis6,825.627 km
Eccentricity0.0000871
Inclination53.1605°
RAAN329.8656°
Arg. of periapsis91.1375°
True anomaly268.96302°
Mean anomaly268.973°
Eccentric anomaly268.96801°
Mean motion3.84884 °/min
BSTAR0.000017787
Orbital period93.53 mins
Loading maneuver chart data...
Loading historical data...
Loading historical data...
Loading historical data...
Loading historical data...
Loading historical data...
Loading historical data...
Loading historical data...

STARLINK-32443 Visibility forecast

Observer location: undefined°, undefined

Span
Click to sort rows by Start time (UTC) header in descending order
Start Az.
Max El. time (UTC)
Max El. Az.
Max El.
End time (UTC)
End Az.
5 mins2024-12-27 00:03:18.687Z188.304° SSW2024-12-27 00:06:18.687Z120.676° SE24.451°2024-12-27 00:08:18.687Z78.365° E
5 mins2024-12-27 01:41:18.687Z275.004° WNW2024-12-27 01:43:18.687Z332.961° NNW28.779°2024-12-27 01:46:18.687Z34.158° NE
4 mins2024-12-27 06:36:18.687Z342.055° N2024-12-27 06:38:18.687Z32.684° NE24.593°2024-12-27 06:40:18.687Z79.851° E
4 mins2024-12-27 08:14:18.687Z270.92° WNW2024-12-27 08:15:18.687Z237.384° WSW30.782°2024-12-27 08:18:18.687Z161.231° S
|